WB4KKT Weather Reports


Display with metric or nautical units.
time (UTC)temp
F
wind
direction
speed
MPH
gust
MPH
rain 1hr
in
rain 24hr
in
rain mn
in
humidity
%
barometer
mb
20260504000052 58 291 0.0 0.0 0.00 0.00 0.00 47 1016.1
20260503234530 60 291 0.0 2.0 0.00 0.00 0.00 43 1016.0
20260503233031 61 291 1.0 5.0 0.00 0.00 0.00 39 1015.9
20260503231529 63 291 2.0 6.0 0.00 0.00 0.00 34 1015.8
20260503230028 64 301 2.0 6.0 0.00 0.00 0.00 34 1015.8
20260503224529 64 296 4.0 9.0 0.00 0.00 0.00 35 1015.8
20260503223036 64 300 5.0 9.0 0.00 0.00 0.00 33 1015.9
20260503221528 65 293 4.0 7.0 0.00 0.00 0.00 35 1015.9
20260503220025 65 281 3.0 7.0 0.00 0.00 0.00 32 1015.8
20260503214524 65 277 6.0 10.0 0.00 0.00 0.00 33 1015.8
20260503213022 65 283 4.0 10.0 0.00 0.00 0.00 32 1015.8
20260503211520 65 190 7.0 13.0 0.00 0.00 0.00 34 1015.9
20260503210018 64 248 6.0 12.0 0.00 0.00 0.00 31 1015.8
20260503204518 65 313 8.0 15.0 0.00 0.00 0.00 31 1015.7
20260503203025 65 286 4.0 12.0 0.00 0.00 0.00 34 1015.8
20260503201517 64 302 7.0 15.0 0.00 0.00 0.00 32 1015.9
20260503200016 64 267 6.0 12.0 0.00 0.00 0.00 32 1016.1
20260503194515 64 302 8.0 15.0 0.00 0.00 0.00 35 1016.3
20260503193017 64 322 8.0 15.0 0.00 0.00 0.00 33 1016.3
20260503191510 64 300 7.0 14.0 0.00 0.00 0.00 33 1016.7
20260503190012 63 298 9.0 18.0 0.00 0.00 0.00 35 1016.7
20260503184508 63 331 7.0 12.0 0.00 0.00 0.00 37 1017.0
20260503183005 62 323 7.0 14.0 0.00 0.00 0.00 38 1017.0
20260503181505 62 342 9.0 14.0 0.00 0.00 0.00 38 1016.9
20260503174523 61 306 10.0 19.0 0.00 0.00 0.00 41 1017.2
20260503173050 61 293 8.0 15.0 0.00 0.00 0.00 41 1017.3
20260503171642 60 290 9.0 21.0 0.00 0.00 0.00 40 1017.4
20260503170107 59 292 8.0 15.0 0.00 0.00 0.00 40 1017.5
20260503081528 53 12 5.0 10.0 0.00 0.01 0.00 64 1013.4
20260503071518 53 294 4.0 9.0 0.00 0.01 0.00 64 1012.8
20260503054509 52 299 4.0 7.0 0.00 0.01 0.00 68 1012.2
20260503053006 52 303 2.0 4.0 0.00 0.01 0.00 66 1012.4
20260503051601 53 303 0.0 4.0 0.00 0.01 0.00 65 1012.4
20260503050058 54 305 2.0 5.0 0.00 0.01 0.00 63 1012.4
20260503044534 54 306 4.0 6.0 0.00 0.01 0.00 63 1012.4
20260503043112 55 297 3.0 6.0 0.00 0.01 0.00 63 1012.5
20260503041556 55 295 3.0 6.0 0.00 0.01 0.00 63 1012.5
20260503040055 55 295 3.0 8.0 0.00 0.01 0.00 63 1012.4
20260503034551 55 300 3.0 6.0 0.00 0.01 0.01 66 1012.5
20260503033054 55 300 1.0 6.0 0.00 0.01 0.01 64 1012.3
20260503031536 56 297 2.0 5.0 0.00 0.01 0.01 62 1012.2
20260503030051 56 296 2.0 7.0 0.00 0.01 0.01 62 1012.2
20260503014607 56 279 2.0 8.0 0.00 0.01 0.01 59 1012.3
20260503011523 56 346 1.0 6.0 0.00 0.01 0.01 57 1011.8
20260503010032 56 298 2.0 8.0 0.00 0.01 0.01 55 1012.0
20260503004509 56 309 2.0 9.0 0.00 0.01 0.01 54 1011.8
20260503003010 56 307 4.0 8.0 0.00 0.01 0.01 55 1011.7
20260503001541 56 336 1.0 8.0 0.00 0.01 0.01 56 1011.5